[[{"header":{"parameterUnit":"m.s-1","parameterCategory":1,"la1":30.2991,"la2":30.254,"lo1":-89.0895,"lo2":-89.0444,"dy":0.0017,"dx":0.0017,"nx":28,"ny":28,"refTime":"2023-09-27T09:00:00:Z","depth":0,"parameterNumber":2,"parameterNumberName":"U-component_of_WINDS"},"data":[0,0,0,0,0,0,0,0,0,0,0,0,0,0,0,0,0,0,0,0,0,0,0,0,0,0,0,0,0,0,0,0,0,0,0,0,0,0,0,0,0,0,0,0,0,0,0,0,0,0,0,0,0,0,0,0,0,0,-5.1666,-5.1667,0,-5.1713,-5.1714,-5.1714,-5.1579,-5.1575,-5.1571,-5.1567,-5.1616,-5.1622,-5.1627,0,0,0,0,0,0,0,0,0,0,0,0,0,-5.1461,-5.1465,-5.1666,-5.1667,-5.1667,-5.1713,-5.1714,-5.1715,-5.158,-5.1575,-5.157,-5.1565,-5.1615,-5.1621,-5.1627,0,0,0,0,0,0,0,0,0,0,0,0,0,-5.1533,-5.1467,-5.1666,-5.1606,-5.1601,-5.1713,-5.1714,-5.1715,-5.1581,-5.1575,-5.1569,-5.1563,-5.1613,-5.162,-5.1628,-5.1801,0,0,-5.1652,-5.1655,0,0,0,0,0,0,0,0,-5.1529,-5.1541,-5.1614,-5.161,-5.1605,-5.1634,-5.1659,-5.1744,-5.1583,-5.1589,-5.1567,-5.156,-5.1627,-5.1634,-5.1656,-5.1803,-5.1805,-5.1652,-5.1657,-5.1661,-5.1663,0,0,0,0,0,0,0,-5.1525,-5.1538,-5.1685,-5.1615,-5.161,-5.1577,-5.158,-5.1675,-5.1643,-5.1588,-5.1578,-5.1585,-5.1624,-5.1649,-5.1656,-5.1806,-5.1652,-5.1659,-5.1664,-5.1667,-5.2099,-5.2105,0,0,0,0,0,0,-5.1527,-5.1535,-5.1683,-5.1686,-5.1551,-5.1585,-5.1589,-5.1631,-5.1641,-5.1637,-5.1591,-5.1579,-5.1639,-5.1647,-5.1658,-5.1862,-5.166,-5.1668,-5.1672,-5.2092,-5.21,-5.2107,0,0,0,0,0,0,-5.1523,-5.1542,-5.1681,-5.1608,-5.1623,-5.1596,-5.1644,-5.1635,-5.166,-5.1643,-5.1637,-5.1622,-5.1634,-5.1647,-5.1766,-5.1862,-5.1671,-5.1678,-5.2084,-5.2094,-5.2104,-5.2272,0,0,0,0,0,0,-5.1518,-5.1541,-5.1607,-5.161,-5.1628,-5.179,-5.1649,-5.1641,-5.1674,-5.1659,-5.1671,-5.1668,-5.163,-5.1756,-5.1774,-5.1869,-5.1684,-5.2075,-5.2089,-5.2101,-5.2257,-5.2286,-5.2311,0,0,0,0,0,-5.1511,-5.1652,-5.1611,-5.1629,-5.1709,-5.1796,-5.1805,-5.1759,-5.1682,-5.1748,-5.1737,-5.1667,-5.1848,-5.1769,-5.1789,-5.1887,-5.2069,-5.2085,-5.21,-5.2245,-5.2281,-5.231,0,0,0,0,0,0,-5.166,-5.1651,-5.1605,-5.1751,-5.1775,-5.1773,-5.1854,-5.1798,-5.1844,-5.1829,-5.1769,-5.1773,-5.1905,-5.1907,-5.182,-5.2056,-5.1945,-5.1965,-5.2049,-5.2083,-5.2109,-5.2106,-5.1691,0,0,0,0,0,-5.171,-5.1781,-5.1769,-5.19,-5.1914,-5.1883,-5.1918,-5.1881,-5.1903,-5.1913,-5.191,-5.1935,-5.1997,-5.204,-5.2096,-5.2257,-5.2258,-5.2334,-5.2361,-5.2383,-5.2401,-5.2488,-5.2522,-5.2158,-5.2157,-5.2157,0,0,-5.1814,-5.1818,-5.1866,-5.193,-5.1944,-5.2019,-5.1892,-5.1977,-5.2032,-5.1925,-5.2039,-5.2038,-5.2062,-5.2204,-5.2266,-5.221,-5.2502,-5.2402,-5.242,-5.2427,-5.2507,-5.2541,-5.2572,-5.2168,-5.2166,-5.2164,0,0,-5.2042,-5.2052,-5.2161,-5.2178,-5.2201,-5.2179,-5.2206,-5.2212,-5.2207,-5.232,-5.2242,-5.2307,-5.2415,-5.2435,-5.246,-5.2696,-5.2634,-5.2716,-5.2856,-5.2941,-5.297,-5.2995,-5.3081,-5.3112,-5.2734,-5.2735,-5.2735,0,-5.2168,-5.2278,-5.2225,-5.2316,-5.2347,-5.2253,-5.2364,-5.2383,-5.2423,-5.2447,-5.2384,-5.2518,-5.2527,-5.2673,-5.273,-5.2753,-5.2782,-5.2715,-5.297,-5.2994,-5.3017,-5.3098,-5.3131,-5.2744,-5.2743,-5.2742,-5.2741,0,-5.2433,-5.2511,-5.2597,-5.2639,-5.2678,-5.2779,-5.2742,-5.2789,-5.2747,-5.2733,-5.2849,-5.2857,-5.2913,-5.2945,-5.2905,-5.3085,-5.305,-5.298,-5.2868,-5.3063,-5.3138,-5.3169,-5.2759,-5.2755,-5.2752,-5.275,0,0,-5.2758,-5.2768,-5.2801,-5.2819,-5.2837,-5.2896,-5.2993,-5.3048,-5.309,-5.3121,-5.3201,-5.3295,-5.3229,-5.3258,-5.322,-5.3294,-5.3482,-5.3214,-5.3213,-5.3265,-5.3682,-5.3737,-5.3774,-5.344,-5.3446,-5.3451,-5.3681,0,-5.2984,-5.3149,-5.3104,-5.327,-5.3341,-5.3253,-5.3337,-5.3358,-5.3347,-5.3406,-5.3393,-5.3461,-5.3369,-5.3385,-5.3455,-5.3445,-5.3566,-5.3427,-5.3516,-5.352,-5.3515,-5.3813,-5.387,-5.4088,-5.371,-5.3715,-5.3718,0,-5.327,-5.3312,-5.3485,-5.3492,-5.352,-5.3596,-5.3644,-5.3701,-5.3723,-5.3709,-5.3741,-5.3688,-5.3784,-5.367,-5.3802,-5.3709,-5.3742,-5.3743,-5.375,-5.3758,-5.3632,-5.383,-5.4155,-5.4189,-5.3764,-5.376,-5.3757,0,-5.3491,-5.3591,-5.3707,-5.3725,-5.3736,-5.3792,-5.3799,-5.3814,-5.385,-5.3891,-5.3915,-5.3967,-5.3996,-5.4038,-5.4,-5.3921,-5.4139,-5.4022,-5.4131,-5.4133,-5.4183,-5.418,-5.452,-5.4202,-5.4201,-5.4201,-5.42,0,-5.3749,-5.3859,-5.3807,-5.3879,-5.3999,-5.3946,-5.4067,-5.4064,-5.4078,-5.4149,-5.4075,-5.4142,-5.4088,-5.4151,-5.4123,-5.4237,-5.425,-5.4243,-5.4234,-5.4251,-5.4252,-5.4273,-5.4258,-5.4209,-5.4207,-5.4206,-5.4204,0,-5.4018,-5.3987,-5.4109,-5.4109,-5.4111,-5.42,-5.42,-5.4267,-5.4249,-5.4339,-5.4357,-5.4331,-5.4401,-5.4368,-5.4441,-5.4422,-5.457,-5.454,-5.4563,-5.4556,-5.4668,-5.4659,-5.5034,-5.5081,-5.4732,-5.4735,-5.4738,0,-5.4186,-5.4268,-5.4277,-5.4318,-5.433,-5.4398,-5.4435,-5.4385,-5.4427,-5.4458,-5.4521,-5.4585,-5.4634,-5.4751,-5.4738,-5.4794,-5.4767,-5.4894,-5.4775,-5.4789,-5.4771,-5.4767,-5.4776,-5.4919,-5.4923,-5.4926,-5.4929,0,-5.4487,-5.4468,-5.4523,-5.4574,-5.462,-5.4658,-5.4689,-5.4727,-5.4679,-5.4729,-5.48,-5.4838,-5.4913,-5.4978,-5.5027,-5.5034,-5.4975,-5.4966,-5.4995,-5.5014,-5.5024,-5.5022,-5.4631,-5.4959,-5.4956,-5.4953,-5.4952,-5.4951,-5.4711,-5.4781,-5.4798,-5.4863,-5.4881,-5.4912,-5.4975,-5.4965,-5.5024,-5.5081,-5.5048,-5.5131,-5.5151,-5.5211,-5.5226,-5.5291,-5.5241,-5.5282,-5.5293,-5.5304,-5.532,-5.5012,-5.53,-5.5299,-5.5298,-5.5297,-5.5297,0,-5.5011,-5.5017,-5.5077,-5.5123,-5.5174,-5.5112,-5.5144,-5.5191,-5.5265,-5.5288,-5.5338,-5.542,-5.5482,-5.5475,-5.5532,-5.5586,-5.556,-5.5603,-5.56,-5.5603,-5.5361,-5.5331,-5.5623,-5.5623,-5.5623,-5.5623,-5.5623,-5.5623,-5.5173,-5.5287,-5.527,-5.5393,-5.5398,-5.548,-5.5503,-5.5532,-5.555,-5.5645,-5.5697,-5.5691,-5.5702,-5.576,-5.5815,-5.5811,-5.5837,-5.589,-5.5877,-5.5652,-5.5619,-5.5589,-5.556,-5.5895,-5.5896,-5.6113,-5.6115,-5.6116]},{"header":{"parameterUnit":"m.s-1","parameterCategory":1,"la1":30.2991,"la2":30.254,"lo1":-89.0895,"lo2":-89.0444,"dy":0.0017,"dx":0.0017,"nx":28,"ny":28,"refTime":"2023-09-27T09:00:00:Z","depth":0,"parameterNumber":3,"parameterNumberName":"V-component_of_WINDS"},"data":[0,0,0,0,0,0,0,0,0,0,0,0,0,0,0,0,0,0,0,0,0,0,0,0,0,0,0,0,0,0,0,0,0,0,0,0,0,0,0,0,0,0,0,0,0,0,0,0,0,0,0,0,0,0,0,0,0,0,-3.4328,-3.4327,0,-3.4275,-3.4274,-3.4273,-3.4193,-3.4192,-3.4191,-3.4189,-3.4136,-3.4136,-3.4136,0,0,0,0,0,0,0,0,0,0,0,0,0,-3.4359,-3.4359,-3.4328,-3.4327,-3.4326,-3.4275,-3.4274,-3.4273,-3.4194,-3.4192,-3.419,-3.4189,-3.4136,-3.4136,-3.4136,0,0,0,0,0,0,0,0,0,0,0,0,0,-3.433,-3.4359,-3.4328,-3.428,-3.4276,-3.4275,-3.4274,-3.4273,-3.4194,-3.4192,-3.419,-3.4188,-3.4136,-3.4136,-3.4136,-3.4177,0,0,-3.4135,-3.4135,0,0,0,0,0,0,0,0,-3.4331,-3.4328,-3.4288,-3.4284,-3.4278,-3.4238,-3.4265,-3.4241,-3.4195,-3.4225,-3.4189,-3.4187,-3.4172,-3.4168,-3.4163,-3.4175,-3.4172,-3.4135,-3.4135,-3.4135,-3.4135,0,0,0,0,0,0,0,-3.4333,-3.433,-3.4307,-3.4287,-3.4281,-3.4261,-3.4255,-3.426,-3.4211,-3.4222,-3.4216,-3.4211,-3.4169,-3.4164,-3.4161,-3.4172,-3.4135,-3.4135,-3.4135,-3.4135,-3.4211,-3.4213,0,0,0,0,0,0,-3.4342,-3.4333,-3.4308,-3.4305,-3.43,-3.4262,-3.4255,-3.4253,-3.4211,-3.4202,-3.4213,-3.4207,-3.4165,-3.4162,-3.4159,-3.4203,-3.4135,-3.4135,-3.4135,-3.4209,-3.4212,-3.4214,0,0,0,0,0,0,-3.4343,-3.4341,-3.431,-3.4317,-3.4312,-3.4264,-3.4263,-3.4253,-3.4248,-3.4204,-3.4194,-3.4217,-3.4163,-3.4159,-3.4172,-3.42,-3.4135,-3.4135,-3.4206,-3.421,-3.4213,-3.4292,0,0,0,0,0,0,-3.4345,-3.4342,-3.4358,-3.4318,-3.4312,-3.4325,-3.4264,-3.4254,-3.4248,-3.424,-3.4205,-3.4197,-3.4161,-3.4173,-3.4172,-3.4198,-3.4135,-3.4204,-3.4208,-3.4212,-3.4286,-3.4297,-3.4306,0,0,0,0,0,-3.4346,-3.4383,-3.4359,-3.4356,-3.433,-3.4327,-3.4323,-3.4281,-3.4251,-3.4265,-3.4236,-3.4198,-3.4197,-3.4175,-3.4174,-3.42,-3.4202,-3.4207,-3.4211,-3.4282,-3.4295,-3.4306,0,0,0,0,0,0,-3.4428,-3.4377,-3.435,-3.4375,-3.4356,-3.4314,-3.4331,-3.4297,-3.4286,-3.428,-3.4228,-3.422,-3.424,-3.4221,-3.4198,-3.4236,-3.4193,-3.4198,-3.4248,-3.426,-3.4269,-3.4273,-3.4134,0,0,0,0,0,-3.4449,-3.4451,-3.4406,-3.4432,-3.4424,-3.438,-3.4377,-3.4345,-3.4324,-3.4315,-3.4287,-3.4268,-3.4262,-3.426,-3.4253,-3.4283,-3.4273,-3.4301,-3.4311,-3.4319,-3.4323,-3.4335,-3.4346,-3.4229,-3.4229,-3.4229,0,0,-3.4492,-3.4465,-3.4469,-3.4448,-3.4429,-3.4431,-3.4373,-3.4379,-3.4379,-3.4316,-3.4326,-3.4305,-3.4279,-3.43,-3.4308,-3.4285,-3.4353,-3.4325,-3.4332,-3.4332,-3.4341,-3.4352,-3.4362,-3.4233,-3.4232,-3.4232,0,0,-3.4572,-3.4552,-3.457,-3.4553,-3.4525,-3.4494,-3.4499,-3.4461,-3.4444,-3.4453,-3.4405,-3.4405,-3.4398,-3.4381,-3.4371,-3.4442,-3.4405,-3.4441,-3.4493,-3.4505,-3.4514,-3.4522,-3.4545,-3.4554,-3.4446,-3.4446,-3.4446,0,-3.4629,-3.463,-3.4584,-3.4592,-3.4583,-3.4525,-3.4542,-3.4528,-3.4499,-3.4494,-3.4469,-3.4457,-3.4436,-3.4451,-3.4468,-3.4463,-3.4465,-3.4445,-3.4517,-3.4524,-3.4531,-3.4552,-3.4561,-3.445,-3.445,-3.445,-3.4449,0,-3.4701,-3.4703,-3.4721,-3.4693,-3.4687,-3.47,-3.4655,-3.4653,-3.4623,-3.4595,-3.4603,-3.4576,-3.4561,-3.4562,-3.4533,-3.4572,-3.4558,-3.4526,-3.4482,-3.4547,-3.4566,-3.4574,-3.4457,-3.4455,-3.4454,-3.4453,0,0,-3.4831,-3.4777,-3.4784,-3.477,-3.4734,-3.4734,-3.4743,-3.4728,-3.4727,-3.4709,-3.4714,-3.4708,-3.4677,-3.4666,-3.4634,-3.4645,-3.4699,-3.461,-3.4609,-3.4626,-3.4738,-3.4761,-3.4772,-3.4675,-3.4676,-3.4678,-3.4739,0,-3.4902,-3.4915,-3.4872,-3.4895,-3.4895,-3.4839,-3.4846,-3.4824,-3.4798,-3.4793,-3.4764,-3.476,-3.4721,-3.4713,-3.4721,-3.4691,-3.4721,-3.4686,-3.4678,-3.4678,-3.4684,-3.4782,-3.4807,-3.4867,-3.4746,-3.4748,-3.4749,0,-3.4987,-3.4972,-3.4995,-3.4955,-3.4953,-3.4961,-3.4941,-3.4938,-3.4912,-3.4892,-3.4879,-3.4841,-3.4845,-3.4804,-3.4809,-3.4786,-3.478,-3.4765,-3.4766,-3.4762,-3.4716,-3.4779,-3.4885,-3.4893,-3.476,-3.4759,-3.4758,0,-3.5077,-3.5063,-3.5073,-3.5063,-3.5018,-3.5024,-3.5005,-3.4977,-3.4969,-3.4953,-3.4947,-3.4932,-3.4923,-3.4912,-3.487,-3.4844,-3.4879,-3.4835,-3.4861,-3.4862,-3.487,-3.487,-3.4975,-3.487,-3.487,-3.4869,-3.4869,0,-3.516,-3.5175,-3.5112,-3.5119,-3.5134,-3.5085,-3.5101,-3.5077,-3.5051,-3.5051,-3.5002,-3.5003,-3.4949,-3.4944,-3.4912,-3.4919,-3.4916,-3.4899,-3.489,-3.4902,-3.4904,-3.4897,-3.4891,-3.4872,-3.4871,-3.4871,-3.487,0,-3.5262,-3.5221,-3.5229,-3.5185,-3.5174,-3.5186,-3.5148,-3.5152,-3.5122,-3.5122,-3.5119,-3.5073,-3.5063,-3.5021,-3.5002,-3.498,-3.4998,-3.4981,-3.5007,-3.5,-3.5028,-3.5026,-3.5131,-3.5141,-3.5032,-3.5033,-3.5034,0,-3.5317,-3.5327,-3.5283,-3.5279,-3.5263,-3.5258,-3.5249,-3.5201,-3.5194,-3.5163,-3.517,-3.5157,-3.5143,-3.5131,-3.5095,-3.5079,-3.5061,-3.5098,-3.5058,-3.5069,-3.5058,-3.5058,-3.5057,-3.5107,-3.5108,-3.511,-3.5111,0,-3.5418,-3.5396,-3.5386,-3.5368,-3.5359,-3.5343,-3.5323,-3.5323,-3.5269,-3.5263,-3.5253,-3.5242,-3.5222,-3.5209,-3.5187,-3.5167,-3.5129,-3.5124,-3.5128,-3.514,-3.5154,-3.5144,-3.5028,-3.5121,-3.512,-3.5119,-3.5119,-3.5118,-3.5496,-3.5501,-3.5471,-3.546,-3.544,-3.5423,-3.5423,-3.5392,-3.5383,-3.5362,-3.5334,-3.5327,-3.5297,-3.5264,-3.5246,-3.5239,-3.5218,-3.5226,-3.5228,-3.523,-3.5235,-3.5156,-3.5235,-3.5235,-3.5235,-3.5234,-3.5234,0,-3.5592,-3.5569,-3.556,-3.5534,-3.5525,-3.549,-3.5466,-3.5461,-3.5455,-3.5431,-3.5418,-3.5404,-3.5391,-3.5353,-3.5335,-3.5336,-3.5318,-3.5333,-3.5331,-3.5327,-3.5256,-3.5252,-3.5347,-3.5347,-3.5347,-3.5347,-3.5347,-3.5347,-3.5641,-3.5647,-3.5622,-3.5617,-3.5594,-3.5586,-3.5575,-3.5558,-3.5538,-3.5525,-3.5513,-3.5488,-3.5457,-3.5436,-3.5422,-3.5411,-3.5405,-3.5425,-3.5409,-3.5343,-3.5332,-3.5322,-3.5318,-3.5425,-3.5425,-3.548,-3.548,-3.548]}]]